Time,TemperatureF,DewpointF,PressureIn,WindDirection,WindDirectionDegrees,WindSpeedMPH,WindSpeedGustMPH,Humidity,HourlyPrecipIn,Conditions,Clouds,dailyrainin,SoftwareType,DateUTC
2013-10-04 00:01:00,70.0,38.7,27.25,NE,45,0.0,0.0,32,0.00,,,0.00,WUHU216HW,2013-10-04 07:01:00,
2013-10-04 00:06:00,69.7,38.4,27.26,NE,45,0.0,0.0,32,0.00,,,0.00,WUHU216HW,2013-10-04 07:06:00,
2013-10-04 00:11:00,69.5,38.3,27.26,NE,45,0.0,0.0,32,0.00,,,0.00,WUHU216HW,2013-10-04 07:11:00,
2013-10-04 00:16:00,69.3,38.1,27.26,NE,45,0.0,0.0,32,0.00,,,0.00,WUHU216HW,2013-10-04 07:16:00,
2013-10-04 00:21:00,69.1,37.9,27.26,NNE,23,0.0,0.0,32,0.00,,,0.00,WUHU216HW,2013-10-04 07:21:00,
2013-10-04 00:26:00,68.8,38.4,27.26,NE,45,0.0,0.0,33,0.00,,,0.00,WUHU216HW,2013-10-04 07:26:00,
2013-10-04 00:31:00,68.4,38.0,27.26,NE,45,0.0,0.0,33,0.00,,,0.00,WUHU216HW,2013-10-04 07:31:00,
2013-10-04 00:36:00,68.2,38.6,27.26,NE,45,0.0,0.0,34,0.00,,,0.00,WUHU216HW,2013-10-04 07:36:00,
2013-10-04 00:41:00,68.0,38.4,27.27,NE,45,0.0,0.0,34,0.00,,,0.00,WUHU216HW,2013-10-04 07:41:00,
2013-10-04 00:46:00,67.9,38.3,27.27,NE,45,0.0,0.0,34,0.00,,,0.00,WUHU216HW,2013-10-04 07:46:00,
2013-10-04 00:51:00,67.9,38.3,27.27,NE,45,0.0,0.0,34,0.00,,,0.00,WUHU216HW,2013-10-04 07:51:00,
2013-10-04 00:56:00,67.7,38.1,27.27,NE,45,0.0,0.0,34,0.00,,,0.00,WUHU216HW,2013-10-04 07:56:00,
2013-10-04 01:01:00,67.5,38.0,27.27,North,0,0.0,0.0,34,0.00,,,0.00,WUHU216HW,2013-10-04 08:01:00,
2013-10-04 01:06:00,67.3,38.5,27.27,North,0,0.0,0.0,35,0.00,,,0.00,WUHU216HW,2013-10-04 08:06:00,
2013-10-04 01:11:00,67.1,38.4,27.27,North,0,0.0,0.0,35,0.00,,,0.00,WUHU216HW,2013-10-04 08:11:00,
2013-10-04 01:16:00,67.0,37.5,27.27,North,0,0.0,0.2,34,0.00,,,0.00,WUHU216HW,2013-10-04 08:16:00,
2013-10-04 01:21:00,66.6,37.2,27.27,North,0,0.0,0.2,34,0.00,,,0.00,WUHU216HW,2013-10-04 08:21:00,
2013-10-04 01:26:00,66.6,37.9,27.27,North,0,0.0,0.0,35,0.00,,,0.00,WUHU216HW,2013-10-04 08:26:00,
2013-10-04 01:31:00,66.2,38.3,27.27,ENE,68,0.0,0.0,36,0.00,,,0.00,WUHU216HW,2013-10-04 08:31:00,
2013-10-04 01:36:00,65.9,38.0,27.27,NE,45,0.0,0.0,36,0.00,,,0.00,WUHU216HW,2013-10-04 08:36:00,
2013-10-04 01:41:00,65.7,37.9,27.27,NE,45,0.0,0.0,36,0.00,,,0.00,WUHU216HW,2013-10-04 08:41:00,
2013-10-04 01:46:00,65.5,37.7,27.27,NE,45,0.0,0.0,36,0.00,,,0.00,WUHU216HW,2013-10-04 08:46:00,
2013-10-04 01:51:00,65.5,37.7,27.27,NE,45,0.0,0.0,36,0.00,,,0.00,WUHU216HW,2013-10-04 08:51:00,
2013-10-04 01:56:00,65.3,37.5,27.27,NE,45,0.0,0.0,36,0.00,,,0.00,WUHU216HW,2013-10-04 08:56:00,
2013-10-04 02:01:00,65.2,37.4,27.27,NE,45,0.0,0.0,36,0.00,,,0.00,WUHU216HW,2013-10-04 09:01:00,
2013-10-04 02:06:00,65.0,37.9,27.27,NE,45,0.0,0.0,37,0.00,,,0.00,WUHU216HW,2013-10-04 09:06:00,
2013-10-04 02:11:00,64.8,37.8,27.27,NE,45,0.0,0.0,37,0.00,,,0.00,WUHU216HW,2013-10-04 09:11:00,
2013-10-04 02:16:00,64.8,37.8,27.27,NNE,23,0.4,0.4,37,0.00,,,0.00,WUHU216HW,2013-10-04 09:16:00,
2013-10-04 02:21:00,64.8,37.8,27.26,NNE,23,0.0,0.4,37,0.00,,,0.00,WUHU216HW,2013-10-04 09:21:00,
2013-10-04 02:26:00,64.8,37.8,27.26,NNE,23,0.0,0.4,37,0.00,,,0.00,WUHU216HW,2013-10-04 09:26:00,
2013-10-04 02:31:00,65.0,37.9,27.26,ENE,68,0.0,0.4,37,0.00,,,0.00,WUHU216HW,2013-10-04 09:31:00,
2013-10-04 02:36:00,64.8,37.8,27.26,ENE,68,0.0,0.0,37,0.00,,,0.00,WUHU216HW,2013-10-04 09:36:00,
2013-10-04 02:41:00,64.6,37.6,27.27,SE,135,0.0,0.4,37,0.00,,,0.00,WUHU216HW,2013-10-04 09:41:00,
2013-10-04 02:46:00,64.4,37.4,27.26,ENE,68,0.4,0.4,37,0.00,,,0.00,WUHU216HW,2013-10-04 09:46:00,
2013-10-04 02:51:00,64.3,38.0,27.26,ENE,68,0.0,0.4,38,0.00,,,0.00,WUHU216HW,2013-10-04 09:51:00,
2013-10-04 02:56:00,64.1,37.8,27.27,ENE,68,0.0,0.0,38,0.00,,,0.00,WUHU216HW,2013-10-04 09:56:00,
2013-10-04 03:01:00,64.1,37.8,27.26,ENE,68,0.0,0.2,38,0.00,,,0.00,WUHU216HW,2013-10-04 10:01:00,
2013-10-04 03:06:00,64.1,37.8,27.27,ENE,68,0.0,0.2,38,0.00,,,0.00,WUHU216HW,2013-10-04 10:06:00,
2013-10-04 03:11:00,63.7,37.5,27.27,ESE,113,0.0,0.0,38,0.00,,,0.00,WUHU216HW,2013-10-04 10:11:00,
2013-10-04 03:16:00,63.5,38.1,27.27,ESE,113,0.0,0.0,39,0.00,,,0.00,WUHU216HW,2013-10-04 10:16:00,
2013-10-04 03:21:00,63.4,37.9,27.27,East,90,0.0,0.0,39,0.00,,,0.00,WUHU216HW,2013-10-04 10:21:00,
2013-10-04 03:26:00,63.2,37.7,27.27,East,90,0.0,0.0,39,0.00,,,0.00,WUHU216HW,2013-10-04 10:26:00,
2013-10-04 03:31:00,62.8,37.5,27.27,SE,135,0.0,0.2,39,0.00,,,0.00,WUHU216HW,2013-10-04 10:31:00,
2013-10-04 03:36:00,62.6,38.0,27.27,SE,135,0.0,0.2,40,0.00,,,0.00,WUHU216HW,2013-10-04 10:36:00,
2013-10-04 03:41:00,62.3,37.6,27.27,SE,135,0.4,0.4,40,0.00,,,0.00,WUHU216HW,2013-10-04 10:41:00,
2013-10-04 03:46:00,62.3,38.3,27.27,SE,135,0.0,0.4,41,0.00,,,0.00,WUHU216HW,2013-10-04 10:46:00,
2013-10-04 03:51:00,62.3,38.3,27.27,SE,135,0.0,0.0,41,0.00,,,0.00,WUHU216HW,2013-10-04 10:51:00,
2013-10-04 03:56:00,62.3,38.3,27.27,ENE,68,0.4,0.4,41,0.00,,,0.00,WUHU216HW,2013-10-04 10:56:00,
2013-10-04 04:01:00,62.3,38.3,27.27,NE,45,0.0,0.4,41,0.00,,,0.00,WUHU216HW,2013-10-04 11:01:00,
2013-10-04 04:06:00,62.3,38.3,27.27,ENE,68,0.0,0.0,41,0.00,,,0.00,WUHU216HW,2013-10-04 11:06:00,
2013-10-04 04:11:00,62.5,38.4,27.28,ENE,68,0.0,0.0,41,0.00,,,0.00,WUHU216HW,2013-10-04 11:11:00,
2013-10-04 04:16:00,62.3,38.3,27.28,ENE,68,0.0,0.0,41,0.00,,,0.00,WUHU216HW,2013-10-04 11:16:00,
2013-10-04 04:21:00,62.3,38.8,27.28,SE,135,0.0,0.0,42,0.00,,,0.00,WUHU216HW,2013-10-04 11:21:00,
2013-10-04 04:26:00,62.1,38.6,27.27,SE,135,0.0,0.0,42,0.00,,,0.00,WUHU216HW,2013-10-04 11:26:00,
2013-10-04 04:31:00,61.9,39.1,27.27,SE,135,0.0,0.0,43,0.00,,,0.00,WUHU216HW,2013-10-04 11:31:00,
2013-10-04 04:36:00,61.7,38.9,27.28,ESE,113,0.0,0.0,43,0.00,,,0.00,WUHU216HW,2013-10-04 11:36:00,
2013-10-04 04:41:00,61.6,38.7,27.28,ESE,113,0.0,0.0,43,0.00,,,0.00,WUHU216HW,2013-10-04 11:41:00,
2013-10-04 04:46:00,61.6,38.7,27.28,ESE,113,0.0,0.0,43,0.00,,,0.00,WUHU216HW,2013-10-04 11:46:00,
2013-10-04 04:51:00,61.4,38.6,27.28,ESE,113,0.0,0.0,43,0.00,,,0.00,WUHU216HW,2013-10-04 11:51:00,
2013-10-04 04:56:00,61.2,38.4,27.28,ESE,113,0.0,0.0,43,0.00,,,0.00,WUHU216HW,2013-10-04 11:56:00,
2013-10-04 05:01:00,61.2,38.4,27.28,ESE,113,0.0,0.0,43,0.00,,,0.00,WUHU216HW,2013-10-04 12:01:00,
2013-10-04 05:06:00,61.0,38.8,27.28,ESE,113,0.0,0.0,44,0.00,,,0.00,WUHU216HW,2013-10-04 12:06:00,
2013-10-04 05:11:00,60.8,38.7,27.28,ESE,113,0.0,0.0,44,0.00,,,0.00,WUHU216HW,2013-10-04 12:11:00,
2013-10-04 05:16:00,60.8,38.7,27.28,ESE,113,0.0,0.0,44,0.00,,,0.00,WUHU216HW,2013-10-04 12:16:00,
2013-10-04 05:21:00,60.7,38.5,27.29,ESE,113,0.0,0.0,44,0.00,,,0.00,WUHU216HW,2013-10-04 12:21:00,
2013-10-04 05:26:00,60.5,38.3,27.29,ESE,113,0.0,0.0,44,0.00,,,0.00,WUHU216HW,2013-10-04 12:26:00,
2013-10-04 05:31:00,60.5,38.9,27.29,ESE,113,0.0,0.0,45,0.00,,,0.00,WUHU216HW,2013-10-04 12:31:00,
2013-10-04 05:36:00,60.5,38.9,27.29,ESE,113,0.0,0.0,45,0.00,,,0.00,WUHU216HW,2013-10-04 12:36:00,
2013-10-04 05:41:00,60.1,38.6,27.29,ESE,113,0.0,0.0,45,0.00,,,0.00,WUHU216HW,2013-10-04 12:41:00,
2013-10-04 05:46:00,60.1,38.6,27.29,ESE,113,0.0,0.0,45,0.00,,,0.00,WUHU216HW,2013-10-04 12:46:00,
2013-10-04 05:51:00,59.9,38.4,27.29,ESE,113,0.0,0.0,45,0.00,,,0.00,WUHU216HW,2013-10-04 12:51:00,
2013-10-04 05:56:00,59.9,38.4,27.29,ESE,113,0.0,0.0,45,0.00,,,0.00,WUHU216HW,2013-10-04 12:56:00,
2013-10-04 06:01:00,59.6,38.1,27.29,ESE,113,0.0,0.0,45,0.00,,,0.00,WUHU216HW,2013-10-04 13:01:00,
2013-10-04 06:06:00,59.4,38.5,27.30,ESE,113,0.0,0.0,46,0.00,,,0.00,WUHU216HW,2013-10-04 13:06:00,
2013-10-04 06:11:00,59.4,38.5,27.30,ESE,113,0.0,0.0,46,0.00,,,0.00,WUHU216HW,2013-10-04 13:11:00,
2013-10-04 06:16:00,59.4,38.5,27.30,ESE,113,0.0,0.0,46,0.00,,,0.00,WUHU216HW,2013-10-04 13:16:00,
2013-10-04 06:21:00,59.4,38.5,27.30,ESE,113,0.0,0.0,46,0.00,,,0.00,WUHU216HW,2013-10-04 13:21:00,
2013-10-04 06:26:00,59.2,39.0,27.30,ESE,113,0.0,0.0,47,0.00,,,0.00,WUHU216HW,2013-10-04 13:26:00,
2013-10-04 06:31:00,59.2,39.0,27.30,ESE,113,0.0,0.0,47,0.00,,,0.00,WUHU216HW,2013-10-04 13:31:00,
2013-10-04 06:36:00,59.0,39.3,27.30,ESE,113,0.0,0.0,48,0.00,,,0.00,WUHU216HW,2013-10-04 13:36:00,
2013-10-04 06:41:00,59.0,38.8,27.30,ESE,113,0.0,0.0,47,0.00,,,0.00,WUHU216HW,2013-10-04 13:41:00,
2013-10-04 06:46:00,59.0,38.8,27.30,ESE,113,0.0,0.0,47,0.00,,,0.00,WUHU216HW,2013-10-04 13:46:00,
2013-10-04 06:51:00,58.9,39.2,27.31,ESE,113,0.0,0.0,48,0.00,,,0.00,WUHU216HW,2013-10-04 13:51:00,
2013-10-04 06:56:00,59.0,39.3,27.30,ESE,113,0.0,0.0,48,0.00,,,0.00,WUHU216HW,2013-10-04 13:56:00,
2013-10-04 07:01:00,59.2,39.5,27.31,ESE,113,0.0,0.0,48,0.00,,,0.00,WUHU216HW,2013-10-04 14:01:00,
2013-10-04 07:06:00,59.6,39.9,27.31,ESE,113,0.0,0.0,48,0.00,,,0.00,WUHU216HW,2013-10-04 14:06:00,
2013-10-04 07:11:00,59.9,40.8,27.31,ESE,113,0.0,0.0,49,0.00,,,0.00,WUHU216HW,2013-10-04 14:11:00,
2013-10-04 07:16:00,60.5,40.7,27.32,ESE,113,0.0,0.0,48,0.00,,,0.00,WUHU216HW,2013-10-04 14:16:00,
2013-10-04 07:21:00,60.8,41.6,27.32,ESE,113,0.0,0.0,49,0.00,,,0.00,WUHU216HW,2013-10-04 14:21:00,
2013-10-04 07:26:00,61.4,41.5,27.32,ESE,113,0.0,0.0,48,0.00,,,0.00,WUHU216HW,2013-10-04 14:26:00,
2013-10-04 07:31:00,61.7,42.4,27.32,ESE,113,0.0,0.0,49,0.00,,,0.00,WUHU216HW,2013-10-04 14:31:00,
2013-10-04 07:36:00,62.1,42.1,27.32,ESE,113,0.0,0.0,48,0.00,,,0.00,WUHU216HW,2013-10-04 14:36:00,
2013-10-04 07:41:00,62.6,42.0,27.32,East,90,0.0,0.0,47,0.00,,,0.00,WUHU216HW,2013-10-04 14:41:00,
2013-10-04 07:46:00,63.2,42.0,27.32,NNE,23,0.2,0.4,46,0.00,,,0.00,WUHU216HW,2013-10-04 14:46:00,
2013-10-04 07:48:00,63.5,42.2,27.32,NNE,23,0.0,0.0,46,0.00,,,0.00,WUHU216HW,2013-10-04 14:48:00,
2013-10-04 07:51:00,63.5,42.2,27.32,NNE,23,0.0,0.4,46,0.00,,,0.00,WUHU216HW,2013-10-04 14:51:00,
2013-10-04 07:56:00,63.5,42.2,27.32,NNE,23,0.0,0.4,46,0.00,,,0.00,WUHU216HW,2013-10-04 14:56:00,
2013-10-04 08:01:00,65.0,42.4,27.33,NNE,23,0.0,0.0,44,0.00,,,0.00,WUHU216HW,2013-10-04 15:01:00,
2013-10-04 08:06:00,65.5,42.9,27.33,NNE,23,0.0,0.0,44,0.00,,,0.00,WUHU216HW,2013-10-04 15:06:00,
2013-10-04 08:11:00,65.9,42.7,27.34,North,0,0.0,0.0,43,0.00,,,0.00,WUHU216HW,2013-10-04 15:11:00,
2013-10-04 08:16:00,66.4,43.2,27.34,NW,315,0.0,0.0,43,0.00,,,0.00,WUHU216HW,2013-10-04 15:16:00,
2013-10-04 08:17:00,66.4,43.2,27.34,NW,315,0.0,0.0,43,0.00,,,0.00,WUHU216HW,2013-10-04 15:17:00,
2013-10-04 08:22:00,67.0,43.0,27.34,NW,315,0.0,0.0,42,0.00,,,0.00,WUHU216HW,2013-10-04 15:22:00,
2013-10-04 08:27:00,67.7,43.8,27.34,NW,315,0.0,0.0,42,0.00,,,0.00,WUHU216HW,2013-10-04 15:27:00,
2013-10-04 08:32:00,68.4,44.4,27.34,NNW,338,0.0,0.7,42,0.00,,,0.00,WUHU216HW,2013-10-04 15:32:00,
2013-10-04 08:37:00,68.9,44.8,27.34,WSW,248,1.1,1.8,42,0.00,,,0.00,WUHU216HW,2013-10-04 15:37:00,
2013-10-04 08:42:00,69.5,45.4,27.34,SW,225,0.9,1.8,42,0.00,,,0.00,WUHU216HW,2013-10-04 15:42:00,
2013-10-04 08:47:00,70.0,45.8,27.35,WSW,248,0.4,0.9,42,0.00,,,0.00,WUHU216HW,2013-10-04 15:47:00,
2013-10-04 08:49:00,70.2,46.0,27.35,SSW,203,1.1,1.1,42,0.00,,,0.00,WUHU216HW,2013-10-04 15:49:00,
2013-10-04 08:52:00,70.2,46.0,27.35,SSW,203,1.1,1.1,42,0.00,,,0.00,WUHU216HW,2013-10-04 15:52:00,
2013-10-04 08:57:00,70.2,46.0,27.35,SSW,203,1.1,1.1,42,0.00,,,0.00,WUHU216HW,2013-10-04 15:57:00,
2013-10-04 09:02:00,71.3,47.0,27.35,WSW,248,0.9,1.3,42,0.00,,,0.00,WUHU216HW,2013-10-04 16:02:00,
2013-10-04 09:07:00,71.6,46.7,27.35,SE,135,0.9,1.3,41,0.00,,,0.00,WUHU216HW,2013-10-04 16:07:00,
2013-10-04 09:12:00,72.0,47.0,27.35,WSW,248,0.0,1.6,41,0.00,,,0.00,WUHU216HW,2013-10-04 16:12:00,
2013-10-04 09:17:00,72.2,47.2,27.35,SE,135,0.9,1.8,41,0.00,,,0.00,WUHU216HW,2013-10-04 16:17:00,
2013-10-04 09:22:00,72.5,47.5,27.35,SSE,158,0.9,1.8,41,0.00,,,0.00,WUHU216HW,2013-10-04 16:22:00,
2013-10-04 09:27:00,72.9,47.3,27.35,SSE,158,1.1,1.6,40,0.00,,,0.00,WUHU216HW,2013-10-04 16:27:00,
2013-10-04 09:32:00,73.3,47.5,27.36,SW,225,0.7,2.0,40,0.00,,,0.00,WUHU216HW,2013-10-04 16:32:00,
2013-10-04 09:37:00,73.8,46.5,27.36,WSW,248,0.0,2.0,38,0.00,,,0.00,WUHU216HW,2013-10-04 16:37:00,
2013-10-04 09:42:00,74.0,45.9,27.35,SE,135,1.6,1.8,37,0.00,,,0.00,WUHU216HW,2013-10-04 16:42:00,
2013-10-04 09:47:00,74.5,44.9,27.36,WSW,248,0.4,1.8,35,0.00,,,0.00,WUHU216HW,2013-10-04 16:47:00,
2013-10-04 09:52:00,74.9,45.2,27.36,West,270,0.7,2.2,35,0.00,,,0.00,WUHU216HW,2013-10-04 16:52:00,
2013-10-04 09:57:00,75.1,44.7,27.36,South,180,0.2,2.5,34,0.00,,,0.00,WUHU216HW,2013-10-04 16:57:00,
2013-10-04 10:02:00,75.4,44.9,27.36,SSE,158,2.0,2.5,34,0.00,,,0.00,WUHU216HW,2013-10-04 17:02:00,
2013-10-04 10:07:00,75.8,44.6,27.36,NNW,338,0.9,2.5,33,0.00,,,0.00,WUHU216HW,2013-10-04 17:07:00,
2013-10-04 10:12:00,76.1,43.3,27.36,ENE,68,0.9,3.1,31,0.00,,,0.00,WUHU216HW,2013-10-04 17:12:00,
2013-10-04 10:16:00,76.3,43.5,27.36,SSW,203,3.4,3.4,31,0.00,,,0.00,WUHU216HW,2013-10-04 17:16:00,
2013-10-04 10:17:00,76.3,43.5,27.36,SSW,203,3.4,3.6,31,0.00,,,0.00,WUHU216HW,2013-10-04 17:17:00,
2013-10-04 10:22:00,76.3,43.5,27.36,SSW,203,3.4,3.6,31,0.00,,,0.00,WUHU216HW,2013-10-04 17:22:00,
2013-10-04 11:01:00,78.8,43.7,27.36,North,0,1.1,2.7,29,0.00,,,0.00,WUHU216HW,2013-10-04 18:01:00,
2013-10-04 11:06:00,79.0,43.9,27.36,WSW,248,0.4,2.2,29,0.00,,,0.00,WUHU216HW,2013-10-04 18:06:00,
2013-10-04 11:11:00,79.4,44.3,27.35,SW,225,0.4,1.1,29,0.00,,,0.00,WUHU216HW,2013-10-04 18:11:00,
2013-10-04 11:16:00,79.7,43.6,27.35,SSW,203,1.6,2.5,28,0.00,,,0.00,WUHU216HW,2013-10-04 18:16:00,
2013-10-04 11:21:00,80.3,44.0,27.35,NNW,338,0.7,2.5,28,0.00,,,0.00,WUHU216HW,2013-10-04 18:21:00,
2013-10-04 11:26:00,80.6,44.4,27.36,WSW,248,1.6,2.5,28,0.00,,,0.00,WUHU216HW,2013-10-04 18:26:00,
2013-10-04 11:31:00,80.6,44.4,27.35,SSW,203,1.1,2.9,28,0.00,,,0.00,WUHU216HW,2013-10-04 18:31:00,
2013-10-04 11:36:00,80.6,44.4,27.35,WSW,248,2.2,3.4,28,0.00,,,0.00,WUHU216HW,2013-10-04 18:36:00,
2013-10-04 11:41:00,80.6,44.4,27.35,WSW,248,1.8,3.4,28,0.00,,,0.00,WUHU216HW,2013-10-04 18:41:00,
2013-10-04 11:46:00,80.6,44.4,27.35,SW,225,2.2,3.4,28,0.00,,,0.00,WUHU216HW,2013-10-04 18:46:00,
2013-10-04 11:51:00,80.8,44.5,27.35,WSW,248,0.4,3.4,28,0.00,,,0.00,WUHU216HW,2013-10-04 18:51:00,
2013-10-04 11:56:00,81.4,44.9,27.35,SE,135,1.3,2.7,28,0.00,,,0.00,WUHU216HW,2013-10-04 18:56:00,
2013-10-04 12:01:00,81.7,43.1,27.35,West,270,1.8,2.7,26,0.00,,,0.00,WUHU216HW,2013-10-04 19:01:00,
2013-10-04 12:06:00,81.7,43.1,27.35,WNW,293,1.1,2.2,26,0.00,,,0.00,WUHU216HW,2013-10-04 19:06:00,
2013-10-04 12:11:00,81.7,41.0,27.34,NW,315,2.5,3.8,24,0.00,,,0.00,WUHU216HW,2013-10-04 19:11:00,
2013-10-04 12:16:00,81.7,42.1,27.34,West,270,2.0,3.8,25,0.00,,,0.00,WUHU216HW,2013-10-04 19:16:00,
2013-10-04 12:21:00,82.1,42.4,27.34,SE,135,2.5,3.4,25,0.00,,,0.00,WUHU216HW,2013-10-04 19:21:00,
2013-10-04 12:26:00,82.6,42.9,27.34,WSW,248,0.7,3.8,25,0.00,,,0.00,WUHU216HW,2013-10-04 19:26:00,
2013-10-04 12:31:00,83.2,42.2,27.34,SW,225,4.5,4.9,24,0.00,,,0.00,WUHU216HW,2013-10-04 19:31:00,
2013-10-04 12:36:00,83.0,41.1,27.34,SSW,203,3.4,4.9,23,0.00,,,0.00,WUHU216HW,2013-10-04 19:36:00,
2013-10-04 12:41:00,82.8,42.0,27.34,North,0,2.0,3.4,24,0.00,,,0.00,WUHU216HW,2013-10-04 19:41:00,
2013-10-04 12:46:00,82.8,42.0,27.33,SW,225,4.0,4.0,24,0.00,,,0.00,WUHU216HW,2013-10-04 19:46:00,
2013-10-04 12:51:00,83.2,42.2,27.33,WSW,248,4.7,5.1,24,0.00,,,0.00,WUHU216HW,2013-10-04 19:51:00,
2013-10-04 12:56:00,83.5,41.5,27.33,West,270,2.9,5.1,23,0.00,,,0.00,WUHU216HW,2013-10-04 19:56:00,
2013-10-04 13:01:00,83.7,41.6,27.33,West,270,2.7,4.3,23,0.00,,,0.00,WUHU216HW,2013-10-04 20:01:00,
2013-10-04 13:06:00,83.7,41.6,27.32,SW,225,3.1,4.7,23,0.00,,,0.00,WUHU216HW,2013-10-04 20:06:00,
2013-10-04 13:11:00,83.5,41.5,27.32,WSW,248,4.9,4.9,23,0.00,,,0.00,WUHU216HW,2013-10-04 20:11:00,
2013-10-04 13:16:00,83.7,41.6,27.32,WSW,248,1.8,4.9,23,0.00,,,0.00,WUHU216HW,2013-10-04 20:16:00,
2013-10-04 13:21:00,83.9,41.8,27.32,SSE,158,3.4,4.5,23,0.00,,,0.00,WUHU216HW,2013-10-04 20:21:00,
2013-10-04 13:26:00,84.4,42.2,27.32,South,180,4.9,4.9,23,0.00,,,0.00,WUHU216HW,2013-10-04 20:26:00,
2013-10-04 13:31:00,84.4,42.2,27.32,WSW,248,2.5,4.9,23,0.00,,,0.00,WUHU216HW,2013-10-04 20:31:00,
2013-10-04 13:36:00,84.6,42.4,27.32,WSW,248,1.3,3.8,23,0.00,,,0.00,WUHU216HW,2013-10-04 20:36:00,
2013-10-04 13:37:00,84.6,42.4,27.32,SW,225,1.8,1.8,23,0.00,,,0.00,WUHU216HW,2013-10-04 20:37:00,
2013-10-04 13:41:00,84.6,42.4,27.32,SW,225,1.8,2.5,23,0.00,,,0.00,WUHU216HW,2013-10-04 20:41:00,
2013-10-04 13:46:00,84.6,42.4,27.32,SW,225,1.8,1.8,23,0.00,,,0.00,WUHU216HW,2013-10-04 20:46:00,
2013-10-04 14:00:00,84.2,42.0,27.31,SSE,158,2.2,2.2,23,0.00,,,0.00,WUHU216HW,2013-10-04 21:00:00,
2013-10-04 14:05:00,84.6,43.5,27.32,WSW,248,1.3,3.8,24,0.00,,,0.00,WUHU216HW,2013-10-04 21:05:00,
2013-10-04 14:10:00,85.0,43.8,27.31,WSW,248,1.6,3.8,24,0.00,,,0.00,WUHU216HW,2013-10-04 21:10:00,
2013-10-04 14:15:00,85.3,42.9,27.31,West,270,4.0,4.0,23,0.00,,,0.00,WUHU216HW,2013-10-04 21:15:00,
2013-10-04 14:20:00,85.3,41.9,27.31,SW,225,4.0,4.0,22,0.00,,,0.00,WUHU216HW,2013-10-04 21:20:00,
2013-10-04 14:22:00,85.1,42.9,27.31,West,270,2.5,4.0,23,0.00,,,0.00,WUHU216HW,2013-10-04 21:22:00,
2013-10-04 14:25:00,85.1,42.9,27.31,West,270,2.5,4.0,23,0.00,,,0.00,WUHU216HW,2013-10-04 21:25:00,
2013-10-04 14:30:00,85.1,42.9,27.31,West,270,2.5,3.4,23,0.00,,,0.00,WUHU216HW,2013-10-04 21:30:00,
2013-10-04 14:53:00,84.8,40.4,27.31,West,270,1.8,1.8,21,0.00,,,0.00,WUHU216HW,2013-10-04 21:53:00,
2013-10-04 14:58:00,85.0,40.5,27.31,SW,225,1.8,4.7,21,0.00,,,0.00,WUHU216HW,2013-10-04 21:58:00,
2013-10-04 15:03:00,84.8,40.4,27.30,NNW,338,1.3,4.7,21,0.00,,,0.00,WUHU216HW,2013-10-04 22:03:00,
2013-10-04 15:08:00,85.1,39.6,27.30,WNW,293,4.0,5.1,20,0.00,,,0.00,WUHU216HW,2013-10-04 22:08:00,
2013-10-04 15:13:00,85.0,40.5,27.30,SW,225,1.1,5.1,21,0.00,,,0.00,WUHU216HW,2013-10-04 22:13:00,
2013-10-04 15:18:00,85.1,40.7,27.30,NW,315,2.5,3.8,21,0.00,,,0.00,WUHU216HW,2013-10-04 22:18:00,
2013-10-04 15:23:00,85.3,40.9,27.30,WSW,248,1.3,3.4,21,0.00,,,0.00,WUHU216HW,2013-10-04 22:23:00,
2013-10-04 15:28:00,85.3,38.1,27.30,WSW,248,4.5,4.7,19,0.00,,,0.00,WUHU216HW,2013-10-04 22:28:00,
2013-10-04 15:33:00,85.3,38.1,27.30,West,270,1.3,6.3,19,0.00,,,0.00,WUHU216HW,2013-10-04 22:33:00,
2013-10-04 15:38:00,85.1,37.9,27.30,WNW,293,3.8,6.3,19,0.00,,,0.00,WUHU216HW,2013-10-04 22:38:00,
2013-10-04 15:43:00,85.0,40.5,27.30,WNW,293,2.0,5.4,21,0.00,,,0.00,WUHU216HW,2013-10-04 22:43:00,
2013-10-04 15:48:00,84.6,40.2,27.30,NW,315,4.0,5.4,21,0.00,,,0.00,WUHU216HW,2013-10-04 22:48:00,
2013-10-04 15:53:00,84.4,40.1,27.30,SW,225,0.9,4.7,21,0.00,,,0.00,WUHU216HW,2013-10-04 22:53:00,
2013-10-04 15:58:00,84.4,40.1,27.30,SW,225,3.4,4.3,21,0.00,,,0.00,WUHU216HW,2013-10-04 22:58:00,
2013-10-04 16:03:00,84.6,40.2,27.30,WSW,248,3.4,4.3,21,0.00,,,0.00,WUHU216HW,2013-10-04 23:03:00,
2013-10-04 16:08:00,84.4,40.1,27.30,West,270,1.6,4.0,21,0.00,,,0.00,WUHU216HW,2013-10-04 23:08:00,
2013-10-04 16:13:00,84.4,41.1,27.30,WSW,248,2.0,4.0,22,0.00,,,0.00,WUHU216HW,2013-10-04 23:13:00,
2013-10-04 16:18:00,84.4,41.1,27.30,NNW,338,4.3,6.9,22,0.00,,,0.00,WUHU216HW,2013-10-04 23:18:00,
2013-10-04 16:23:00,84.2,40.0,27.30,West,270,4.0,6.9,21,0.00,,,0.00,WUHU216HW,2013-10-04 23:23:00,
2013-10-04 16:28:00,84.1,39.8,27.30,WNW,293,1.1,4.0,21,0.00,,,0.00,WUHU216HW,2013-10-04 23:28:00,
2013-10-04 16:33:00,84.1,40.9,27.30,West,270,1.8,3.8,22,0.00,,,0.00,WUHU216HW,2013-10-04 23:33:00,
2013-10-04 16:38:00,84.1,40.9,27.30,NW,315,0.9,3.8,22,0.00,,,0.00,WUHU216HW,2013-10-04 23:38:00,
2013-10-04 16:43:00,84.1,40.9,27.30,WNW,293,1.3,3.6,22,0.00,,,0.00,WUHU216HW,2013-10-04 23:43:00,
2013-10-04 16:48:00,83.9,40.7,27.30,WSW,248,1.8,3.4,22,0.00,,,0.00,WUHU216HW,2013-10-04 23:48:00,
2013-10-04 16:53:00,83.9,40.7,27.30,WSW,248,1.8,3.8,22,0.00,,,0.00,WUHU216HW,2013-10-04 23:53:00,
2013-10-04 16:58:00,83.9,41.8,27.30,West,270,3.1,3.8,23,0.00,,,0.00,WUHU216HW,2013-10-04 23:58:00,
2013-10-04 17:03:00,83.5,41.5,27.30,WNW,293,2.9,3.6,23,0.00,,,0.00,WUHU216HW,2013-10-05 00:03:00,
2013-10-04 17:08:00,83.2,41.1,27.30,WNW,293,2.5,3.6,23,0.00,,,0.00,WUHU216HW,2013-10-05 00:08:00,
2013-10-04 17:13:00,83.0,41.1,27.30,WSW,248,1.3,3.4,23,0.00,,,0.00,WUHU216HW,2013-10-05 00:13:00,
2013-10-04 17:18:00,82.8,42.0,27.30,West,270,1.8,3.4,24,0.00,,,0.00,WUHU216HW,2013-10-05 00:18:00,
2013-10-04 17:23:00,82.8,42.0,27.30,SW,225,1.3,2.7,24,0.00,,,0.00,WUHU216HW,2013-10-05 00:23:00,
2013-10-04 17:28:00,82.8,42.0,27.30,WSW,248,2.0,2.7,24,0.00,,,0.00,WUHU216HW,2013-10-05 00:28:00,
2013-10-04 17:33:00,82.4,41.6,27.30,WSW,248,0.9,4.5,24,0.00,,,0.00,WUHU216HW,2013-10-05 00:33:00,
2013-10-04 17:38:00,82.3,41.5,27.30,WSW,248,1.8,4.5,24,0.00,,,0.00,WUHU216HW,2013-10-05 00:38:00,
2013-10-04 17:43:00,81.9,41.2,27.30,WNW,293,1.1,2.5,24,0.00,,,0.00,WUHU216HW,2013-10-05 00:43:00,
2013-10-04 17:48:00,81.7,41.0,27.30,SSW,203,1.6,1.8,24,0.00,,,0.00,WUHU216HW,2013-10-05 00:48:00,
2013-10-04 17:53:00,81.9,41.2,27.30,NW,315,1.8,1.8,24,0.00,,,0.00,WUHU216HW,2013-10-05 00:53:00,
2013-10-04 17:58:00,81.7,41.0,27.30,West,270,0.0,1.8,24,0.00,,,0.00,WUHU216HW,2013-10-05 00:58:00,
2013-10-04 18:03:00,81.4,40.8,27.30,SW,225,0.7,1.1,24,0.00,,,0.00,WUHU216HW,2013-10-05 01:03:00,
2013-10-04 18:08:00,81.2,41.7,27.30,WSW,248,0.0,1.1,25,0.00,,,0.00,WUHU216HW,2013-10-05 01:08:00,
2013-10-04 18:13:00,80.8,41.4,27.30,WSW,248,0.2,1.1,25,0.00,,,0.00,WUHU216HW,2013-10-05 01:13:00,
2013-10-04 18:18:00,80.5,41.0,27.30,West,270,0.4,0.9,25,0.00,,,0.00,WUHU216HW,2013-10-05 01:18:00,
2013-10-04 18:23:00,80.3,40.9,27.30,South,180,1.1,1.1,25,0.00,,,0.00,WUHU216HW,2013-10-05 01:23:00,
2013-10-04 18:28:00,80.1,40.8,27.31,SW,225,1.1,1.1,25,0.00,,,0.00,WUHU216HW,2013-10-05 01:28:00,
2013-10-04 18:33:00,79.9,41.6,27.31,West,270,0.0,1.1,26,0.00,,,0.00,WUHU216HW,2013-10-05 01:33:00,
2013-10-04 18:38:00,79.6,41.3,27.31,WSW,248,0.4,1.1,26,0.00,,,0.00,WUHU216HW,2013-10-05 01:38:00,
2013-10-04 18:43:00,79.4,43.2,27.31,WSW,248,0.0,1.1,28,0.00,,,0.00,WUHU216HW,2013-10-05 01:43:00,
2013-10-04 18:48:00,79.0,46.5,27.31,SW,225,0.7,0.7,32,0.00,,,0.00,WUHU216HW,2013-10-05 01:48:00,
2013-10-04 18:53:00,78.5,43.5,27.31,WSW,248,0.4,0.9,29,0.00,,,0.00,WUHU216HW,2013-10-05 01:53:00,
2013-10-04 18:58:00,78.3,43.4,27.31,SW,225,0.7,1.1,29,0.00,,,0.00,WUHU216HW,2013-10-05 01:58:00,
2013-10-04 19:03:00,78.1,42.1,27.32,SW,225,2.0,2.5,28,0.00,,,0.00,WUHU216HW,2013-10-05 02:03:00,
2013-10-04 19:08:00,78.1,42.1,27.32,West,270,0.4,2.5,28,0.00,,,0.00,WUHU216HW,2013-10-05 02:08:00,
2013-10-04 19:13:00,77.9,42.0,27.32,SW,225,0.4,1.6,28,0.00,,,0.00,WUHU216HW,2013-10-05 02:13:00,
2013-10-04 19:18:00,77.8,41.9,27.32,WSW,248,0.4,1.8,28,0.00,,,0.00,WUHU216HW,2013-10-05 02:18:00,
2013-10-04 19:23:00,77.8,39.8,27.32,SW,225,0.2,1.8,26,0.00,,,0.00,WUHU216HW,2013-10-05 02:23:00,
2013-10-04 19:28:00,77.6,39.6,27.32,West,270,0.4,1.8,26,0.00,,,0.00,WUHU216HW,2013-10-05 02:28:00,
2013-10-04 19:33:00,77.4,39.5,27.33,SW,225,0.4,1.8,26,0.00,,,0.00,WUHU216HW,2013-10-05 02:33:00,
2013-10-04 19:38:00,77.4,39.5,27.33,WSW,248,0.2,1.1,26,0.00,,,0.00,WUHU216HW,2013-10-05 02:38:00,
2013-10-04 19:43:00,77.2,39.3,27.33,WSW,248,0.4,1.1,26,0.00,,,0.00,WUHU216HW,2013-10-05 02:43:00,
2013-10-04 19:48:00,77.0,39.3,27.33,WSW,248,1.1,1.1,26,0.00,,,0.00,WUHU216HW,2013-10-05 02:48:00,
2013-10-04 19:53:00,76.9,39.1,27.33,SW,225,0.9,1.1,26,0.00,,,0.00,WUHU216HW,2013-10-05 02:53:00,
2013-10-04 19:58:00,76.7,38.9,27.34,West,270,0.4,1.1,26,0.00,,,0.00,WUHU216HW,2013-10-05 02:58:00,
2013-10-04 20:03:00,76.7,38.9,27.34,WSW,248,0.2,0.7,26,0.00,,,0.00,WUHU216HW,2013-10-05 03:03:00,
2013-10-04 20:08:00,76.5,38.7,27.34,SW,225,0.0,0.4,26,0.00,,,0.00,WUHU216HW,2013-10-05 03:08:00,
2013-10-04 20:13:00,76.3,38.6,27.34,WSW,248,0.0,0.4,26,0.00,,,0.00,WUHU216HW,2013-10-05 03:13:00,
2013-10-04 20:18:00,76.3,38.6,27.34,West,270,0.0,0.0,26,0.00,,,0.00,WUHU216HW,2013-10-05 03:18:00,
2013-10-04 20:23:00,76.0,38.3,27.34,West,270,0.0,0.0,26,0.00,,,0.00,WUHU216HW,2013-10-05 03:23:00,
2013-10-04 20:28:00,75.8,38.2,27.34,West,270,0.0,0.0,26,0.00,,,0.00,WUHU216HW,2013-10-05 03:28:00,
2013-10-04 20:33:00,75.2,39.7,27.35,SE,135,0.7,0.9,28,0.00,,,0.00,WUHU216HW,2013-10-05 03:33:00,
2013-10-04 20:38:00,74.7,39.3,27.35,ENE,68,0.2,0.9,28,0.00,,,0.00,WUHU216HW,2013-10-05 03:38:00,
2013-10-04 20:43:00,74.2,38.8,27.35,SE,135,0.9,0.9,28,0.00,,,0.00,WUHU216HW,2013-10-05 03:43:00,
2013-10-04 20:47:00,73.8,39.4,27.35,ENE,68,0.2,0.9,29,0.00,,,0.00,WUHU216HW,2013-10-05 03:47:00,
2013-10-04 20:52:00,73.3,39.0,27.35,ENE,68,0.0,0.9,29,0.00,,,0.00,WUHU216HW,2013-10-05 03:52:00,
2013-10-04 20:57:00,72.9,39.7,27.36,East,90,0.0,0.4,30,0.00,,,0.00,WUHU216HW,2013-10-05 03:57:00,
2013-10-04 21:01:00,72.7,39.6,27.35,ESE,113,0.0,0.4,30,0.00,,,0.00,WUHU216HW,2013-10-05 04:01:00,
2013-10-04 21:06:00,72.4,39.2,27.36,SE,135,0.0,0.4,30,0.00,,,0.00,WUHU216HW,2013-10-05 04:06:00,
2013-10-04 21:11:00,72.4,39.2,27.36,ENE,68,0.0,0.4,30,0.00,,,0.00,WUHU216HW,2013-10-05 04:11:00,
2013-10-04 21:16:00,72.2,39.2,27.36,ENE,68,0.4,1.1,30,0.00,,,0.00,WUHU216HW,2013-10-05 04:16:00,
2013-10-04 21:21:00,72.0,39.0,27.36,ENE,68,0.0,1.1,30,0.00,,,0.00,WUHU216HW,2013-10-05 04:21:00,
2013-10-04 21:26:00,71.8,38.9,27.36,ENE,68,0.2,0.7,30,0.00,,,0.00,WUHU216HW,2013-10-05 04:26:00,
2013-10-04 21:31:00,71.6,38.7,27.37,East,90,0.7,0.7,30,0.00,,,0.00,WUHU216HW,2013-10-05 04:31:00,
2013-10-04 21:36:00,71.6,38.7,27.36,ENE,68,0.2,1.3,30,0.00,,,0.00,WUHU216HW,2013-10-05 04:36:00,
2013-10-04 21:41:00,71.5,38.5,27.37,ESE,113,0.2,1.3,30,0.00,,,0.00,WUHU216HW,2013-10-05 04:41:00,
2013-10-04 21:46:00,71.5,38.5,27.37,SE,135,1.1,2.2,30,0.00,,,0.00,WUHU216HW,2013-10-05 04:46:00,
2013-10-04 21:51:00,71.3,38.3,27.37,SE,135,1.3,3.1,30,0.00,,,0.00,WUHU216HW,2013-10-05 04:51:00,
2013-10-04 21:56:00,71.3,38.3,27.37,NE,45,0.2,3.1,30,0.00,,,0.00,WUHU216HW,2013-10-05 04:56:00,
2013-10-04 22:01:00,71.1,37.2,27.37,East,90,0.4,1.3,29,0.00,,,0.00,WUHU216HW,2013-10-05 05:01:00,
2013-10-04 22:06:00,70.9,37.0,27.37,ESE,113,0.2,1.3,29,0.00,,,0.00,WUHU216HW,2013-10-05 05:06:00,
2013-10-04 22:11:00,70.9,37.0,27.37,SE,135,0.0,1.1,29,0.00,,,0.00,WUHU216HW,2013-10-05 05:11:00,
2013-10-04 22:16:00,70.7,35.8,27.37,ESE,113,0.4,1.1,28,0.00,,,0.00,WUHU216HW,2013-10-05 05:16:00,
2013-10-04 22:21:00,70.7,35.8,27.38,NE,45,0.7,2.5,28,0.00,,,0.00,WUHU216HW,2013-10-05 05:21:00,
2013-10-04 22:26:00,70.6,35.7,27.38,East,90,0.4,2.5,28,0.00,,,0.00,WUHU216HW,2013-10-05 05:26:00,
2013-10-04 22:31:00,70.6,35.7,27.38,ENE,68,0.2,0.7,28,0.00,,,0.00,WUHU216HW,2013-10-05 05:31:00,
2013-10-04 22:36:00,70.6,35.7,27.38,SE,135,0.2,0.4,28,0.00,,,0.00,WUHU216HW,2013-10-05 05:36:00,
2013-10-04 22:41:00,70.6,35.7,27.38,ESE,113,0.4,0.4,28,0.00,,,0.00,WUHU216HW,2013-10-05 05:41:00,
2013-10-04 22:46:00,70.6,33.7,27.38,ESE,113,0.4,1.6,26,0.00,,,0.00,WUHU216HW,2013-10-05 05:46:00,
2013-10-04 22:51:00,70.4,36.5,27.38,ESE,113,0.4,1.6,29,0.00,,,0.00,WUHU216HW,2013-10-05 05:51:00,
2013-10-04 22:56:00,70.2,37.5,27.38,SE,135,0.7,1.6,30,0.00,,,0.00,WUHU216HW,2013-10-05 05:56:00,
2013-10-04 23:01:00,69.8,38.5,27.38,East,90,2.5,2.5,32,0.00,,,0.00,WUHU216HW,2013-10-05 06:01:00,
2013-10-04 23:06:00,69.5,37.5,27.39,ESE,113,0.4,2.5,31,0.00,,,0.00,WUHU216HW,2013-10-05 06:06:00,
2013-10-04 23:11:00,69.5,35.7,27.39,East,90,1.1,1.1,29,0.00,,,0.00,WUHU216HW,2013-10-05 06:11:00,
2013-10-04 23:16:00,69.5,34.7,27.39,ENE,68,0.2,1.8,28,0.00,,,0.00,WUHU216HW,2013-10-05 06:16:00,
2013-10-04 23:21:00,69.3,32.6,27.39,East,90,0.9,1.8,26,0.00,,,0.00,WUHU216HW,2013-10-05 06:21:00,
2013-10-04 23:26:00,69.3,32.6,27.39,East,90,1.1,1.1,26,0.00,,,0.00,WUHU216HW,2013-10-05 06:26:00,
2013-10-04 23:31:00,69.1,31.4,27.39,ENE,68,0.0,1.1,25,0.00,,,0.00,WUHU216HW,2013-10-05 06:31:00,
2013-10-04 23:36:00,68.9,31.3,27.39,SE,135,0.0,0.9,25,0.00,,,0.00,WUHU216HW,2013-10-05 06:36:00,
2013-10-04 23:41:00,68.8,31.2,27.39,NE,45,0.9,0.9,25,0.00,,,0.00,WUHU216HW,2013-10-05 06:41:00,
2013-10-04 23:46:00,68.8,31.2,27.40,ESE,113,0.0,0.9,25,0.00,,,0.00,WUHU216HW,2013-10-05 06:46:00,
2013-10-04 23:51:00,68.6,31.0,27.40,East,90,0.0,0.4,25,0.00,,,0.00,WUHU216HW,2013-10-05 06:51:00,
2013-10-04 23:56:00,68.4,30.8,27.40,East,90,0.4,0.4,25,0.00,,,0.00,WUHU216HW,2013-10-05 06:56:00,